When you browse on this site, cookies collect data to enhance your experience and personalize the content and advertising you see.
Visit our Privacy Policy to learn more. By continuing to use the site, you agree to this use of cookies and data.
  • In Belgien
  • Länderverzeichnis
  • Für 7 Tage
  • Wassertemperatur
  • Satellitenkarten
  • Wetterkarte
  • Widgets
  • user-avatar
    Anmelden

    Stündliche Wetter Brisbane

    Heute, 23 Februar, Samstag

    Zeit Temperatur Niederschläge Wind Luftdruck Luftfeuchtigkeit
    00:00 +23°C° 0 mm 5 m/S 757 mmHg 63%
    01:00 +23°C° 0 mm 6 m/S 756 mmHg 63%
    02:00 +23°C° 0 mm 5 m/S 756 mmHg 64%
    03:00 +23°C° 0 mm 5 m/S 756 mmHg 65%
    04:00 +23°C° 0 mm 5 m/S 756 mmHg 63%
    05:00 +23°C° 0 mm 6 m/S 757 mmHg 63%
    06:00 +23°C° 0 mm 6 m/S 757 mmHg 63%
    07:00 +24°C° 0 mm 6 m/S 757 mmHg 64%
    08:00 +26°C° 0 mm 6 m/S 757 mmHg 58%
    09:00 +27°C° 0 mm 6 m/S 758 mmHg 53%
    10:00 +29°C° 0 mm 5 m/S 758 mmHg 44%
    11:00 +30°C° 0 mm 6 m/S 758 mmHg 41%
    12:00 +33°C° 0 mm 6 m/S 758 mmHg 37%
    13:00 +34°C° 0 mm 7 m/S 758 mmHg 34%
    14:00 +33°C° 0 mm 7 m/S 758 mmHg 34%
    15:00 +33°C° 0 mm 7 m/S 758 mmHg 35%
    16:00 +32°C° 0 mm 7 m/S 758 mmHg 38%
    17:00 +30°C° 0 mm 7 m/S 759 mmHg 42%
    18:00 +28°C° 0 mm 6 m/S 759 mmHg 47%
    19:00 +26°C° 0 mm 6 m/S 760 mmHg 52%
    20:00 +24°C° 0 mm 6 m/S 760 mmHg 56%
    21:00 +24°C° 0 mm 6 m/S 761 mmHg 61%
    22:00 +23°C° 0 mm 5 m/S 761 mmHg 65%
    23:00 +23°C° 0.1 mm 5 m/S 761 mmHg 67%

    Morgen, 24 Februar, Sonntag

    Zeit Temperatur Niederschläge Wind Luftdruck Luftfeuchtigkeit
    00:00 +23°C° 0.1 mm 5 m/S 761 mmHg 69%
    01:00 +23°C° 0.1 mm 5 m/S 760 mmHg 70%
    02:00 +22°C° 0.1 mm 5 m/S 760 mmHg 72%
    03:00 +22°C° 0.1 mm 5 m/S 761 mmHg 73%
    04:00 +22°C° 0.1 mm 5 m/S 761 mmHg 74%
    05:00 +22°C° 0 mm 5 m/S 761 mmHg 72%
    06:00 +23°C° 0 mm 6 m/S 761 mmHg 69%
    07:00 +23°C° 0 mm 6 m/S 761 mmHg 67%
    08:00 +24°C° 0.1 mm 6 m/S 762 mmHg 62%
    09:00 +26°C° 0.1 mm 6 m/S 762 mmHg 58%
    10:00 +27°C° 0.1 mm 7 m/S 762 mmHg 53%
    11:00 +28°C° 0 mm 7 m/S 762 mmHg 51%
    12:00 +28°C° 0 mm 7 m/S 762 mmHg 48%
    13:00 +29°C° 0 mm 7 m/S 762 mmHg 46%
    14:00 +29°C° 0 mm 7 m/S 762 mmHg 46%
    15:00 +29°C° 0 mm 7 m/S 762 mmHg 45%
    16:00 +31°C° 0 mm 8 m/S 761 mmHg 44%
    17:00 +28°C° 0 mm 7 m/S 762 mmHg 48%
    18:00 +27°C° 0 mm 7 m/S 762 mmHg 52%
    19:00 +26°C° 0 mm 6 m/S 763 mmHg 56%
    20:00 +24°C° 0 mm 6 m/S 763 mmHg 60%
    21:00 +23°C° 0 mm 6 m/S 764 mmHg 64%
    22:00 +23°C° 0 mm 5 m/S 764 mmHg 68%
    23:00 +22°C° 0 mm 5 m/S 764 mmHg 69%

    übermorgen, 25 Februar, Montag

    Zeit Temperatur Niederschläge Wind Luftdruck Luftfeuchtigkeit
    00:00 +22°C° 0 mm 5 m/S 763 mmHg 70%
    01:00 +22°C° 0 mm 5 m/S 763 mmHg 71%
    02:00 +22°C° 0 mm 5 m/S 763 mmHg 72%
    03:00 +22°C° 0 mm 5 m/S 763 mmHg 73%
    04:00 +21°C° 0 mm 5 m/S 762 mmHg 74%
    05:00 +22°C° 0.1 mm 5 m/S 763 mmHg 72%
    06:00 +22°C° 0.1 mm 6 m/S 763 mmHg 70%
    07:00 +23°C° 0.1 mm 6 m/S 764 mmHg 68%
    08:00 +24°C° 0.1 mm 6 m/S 764 mmHg 64%
    09:00 +26°C° 0.1 mm 6 m/S 764 mmHg 61%
    10:00 +26°C° 0.1 mm 7 m/S 765 mmHg 57%
    11:00 +27°C° 0.1 mm 6 m/S 764 mmHg 56%
    12:00 +27°C° 0.1 mm 6 m/S 764 mmHg 54%
    13:00 +27°C° 0.1 mm 6 m/S 764 mmHg 53%
    14:00 +27°C° 0 mm 6 m/S 763 mmHg 53%
    15:00 +27°C° 0 mm 6 m/S 763 mmHg 52%
    16:00 +27°C° 0 mm 6 m/S 763 mmHg 52%
    17:00 +26°C° 0.1 mm 6 m/S 763 mmHg 55%
    18:00 +25°C° 0.1 mm 5 m/S 764 mmHg 59%
    19:00 +25°C° 0.1 mm 5 m/S 764 mmHg 63%
    20:00 +23°C° 0.1 mm 5 m/S 764 mmHg 66%
    21:00 +22°C° 0.1 mm 5 m/S 764 mmHg 70%
    22:00 +22°C° 0.1 mm 4 m/S 765 mmHg 73%
    23:00 +21°C° 0.1 mm 4 m/S 764 mmHg 75%

    26 Februar, Dienstag

    Zeit Temperatur Niederschläge Wind Luftdruck Luftfeuchtigkeit
    00:00 +21°C° 0.1 mm 4 m/S 764 mmHg 77%
    01:00 +21°C° 0.1 mm 4 m/S 763 mmHg 79%
    02:00 +21°C° 0.1 mm 4 m/S 763 mmHg 80%
    03:00 +21°C° 0.1 mm 4 m/S 763 mmHg 81%
    04:00 +21°C° 0.1 mm 4 m/S 762 mmHg 82%
    05:00 +21°C° 0 mm 4 m/S 763 mmHg 80%
    06:00 +22°C° 0 mm 4 m/S 763 mmHg 78%
    07:00 +22°C° 0 mm 4 m/S 763 mmHg 75%
    08:00 +25°C° 0.2 mm 4 m/S 763 mmHg 68%
    09:00 +27°C° 0.2 mm 5 m/S 764 mmHg 61%
    10:00 +28°C° 0.2 mm 5 m/S 764 mmHg 54%
    11:00 +28°C° 0.2 mm 5 m/S 763 mmHg 58%
    12:00 +27°C° 0.2 mm 4 m/S 763 mmHg 63%
    13:00 +26°C° 0.2 mm 4 m/S 762 mmHg 67%
    14:00 +27°C° 0.1 mm 4 m/S 762 mmHg 64%
    15:00 +27°C° 0.1 mm 4 m/S 762 mmHg 61%
    16:00 +28°C° 0.1 mm 4 m/S 761 mmHg 58%
    17:00 +27°C° 0.1 mm 4 m/S 762 mmHg 63%
    18:00 +26°C° 0.1 mm 3 m/S 762 mmHg 68%
    19:00 +24°C° 0.1 mm 3 m/S 763 mmHg 73%
    20:00 +24°C° 0 mm 3 m/S 763 mmHg 76%
    21:00 +24°C° 0 mm 3 m/S 763 mmHg 78%
    22:00 +22°C° 0 mm 3 m/S 764 mmHg 81%
    23:00 +22°C° 0.1 mm 3 m/S 763 mmHg 83%

    27 Februar, Mittwoch

    Zeit Temperatur Niederschläge Wind Luftdruck Luftfeuchtigkeit
    00:00 +21°C° 0.1 mm 3 m/S 763 mmHg 84%
    01:00 +21°C° 0.1 mm 2 m/S 762 mmHg 86%
    02:00 +21°C° 0.1 mm 2 m/S 762 mmHg 87%
    03:00 +21°C° 0.1 mm 2 m/S 762 mmHg 88%
    04:00 +21°C° 0.1 mm 2 m/S 762 mmHg 88%
    05:00 +21°C° 0.1 mm 3 m/S 762 mmHg 86%
    06:00 +22°C° 0.1 mm 3 m/S 762 mmHg 84%
    07:00 +22°C° 0.1 mm 3 m/S 763 mmHg 82%
    08:00 +25°C° 0.3 mm 3 m/S 763 mmHg 74%
    09:00 +27°C° 0.3 mm 4 m/S 763 mmHg 65%
    10:00 +29°C° 0.3 mm 4 m/S 763 mmHg 57%
    11:00 +29°C° 0.2 mm 5 m/S 763 mmHg 54%
    12:00 +30°C° 0.2 mm 5 m/S 762 mmHg 51%
    13:00 +30°C° 0.2 mm 5 m/S 762 mmHg 49%
    14:00 +30°C° 0 mm 5 m/S 762 mmHg 49%
    15:00 +29°C° 0 mm 6 m/S 762 mmHg 50%
    16:00 +29°C° 0 mm 6 m/S 762 mmHg 51%
    17:00 +28°C° 0 mm 5 m/S 762 mmHg 57%
    18:00 +27°C° 0 mm 5 m/S 763 mmHg 63%
    19:00 +25°C° 0 mm 5 m/S 763 mmHg 69%
    20:00 +25°C° 0.2 mm 4 m/S 764 mmHg 74%
    21:00 +23°C° 0.2 mm 4 m/S 764 mmHg 78%
    22:00 +22°C° 0.2 mm 4 m/S 764 mmHg 83%
    23:00 +22°C° 0.3 mm 4 m/S 764 mmHg 84%

    28 Februar, Donnerstag

    Zeit Temperatur Niederschläge Wind Luftdruck Luftfeuchtigkeit
    00:00 +22°C° 0.3 mm 4 m/S 764 mmHg 85%
    01:00 +22°C° 0.3 mm 4 m/S 763 mmHg 85%
    02:00 +21°C° 0.1 mm 4 m/S 763 mmHg 86%
    03:00 +21°C° 0.1 mm 4 m/S 763 mmHg 86%
    04:00 +21°C° 0.1 mm 4 m/S 763 mmHg 86%
    05:00 +21°C° 0.1 mm 3 m/S 763 mmHg 84%
    06:00 +22°C° 0.1 mm 3 m/S 764 mmHg 82%
    07:00 +22°C° 0.1 mm 3 m/S 764 mmHg 81%
    08:00 +25°C° 0.1 mm 4 m/S 764 mmHg 71%
    09:00 +27°C° 0.1 mm 5 m/S 764 mmHg 62%
    10:00 +29°C° 0.1 mm 5 m/S 764 mmHg 53%
    11:00 +29°C° 0.1 mm 5 m/S 764 mmHg 50%
    12:00 +30°C° 0.1 mm 6 m/S 763 mmHg 47%
    13:00 +32°C° 0.1 mm 6 m/S 763 mmHg 44%
    14:00 +30°C° 0 mm 6 m/S 763 mmHg 46%
    15:00 +30°C° 0 mm 6 m/S 763 mmHg 48%
    16:00 +29°C° 0 mm 6 m/S 762 mmHg 50%
    17:00 +28°C° 0 mm 6 m/S 763 mmHg 56%
    18:00 +27°C° 0 mm 5 m/S 763 mmHg 61%
    19:00 +25°C° 0 mm 4 m/S 764 mmHg 67%
    20:00 +25°C° 0.3 mm 4 m/S 764 mmHg 72%
    21:00 +23°C° 0.3 mm 4 m/S 764 mmHg 78%
    22:00 +22°C° 0.3 mm 4 m/S 764 mmHg 83%
    23:00 +22°C° 0.1 mm 4 m/S 764 mmHg 84%
    Mehr zeigen